Pine Bluff, AR

5:21 AM CST on February 08, 2016 (GMT -0600)
Grider

Weather History for KPBF - December, 2012

Change the Weather History Date:

Monday, December 10, 2012

  Actual Average Record
Temperature  
Mean Temperature 43 °F 45 °F  
Max Temperature 54 °F 54 °F 78 °F (1918)
Min Temperature 31 °F 36 °F 11 °F (1917)
Degree Days  
Heating Degree Days 22 20  
Month to date heating degree days 50 189  
Since 1 July heating degree days 634 693  
Cooling Degree Days 0 0  
Month to date cooling degree days 6 0  
Year to date cooling degree days 2389 2131  
Moisture  
Dew Point 35 °F    
Average Humidity 67    
Maximum Humidity 80    
Minimum Humidity 53    
Precipitation  
Precipitation 0.07 in 0.20 in 2.08 in (1963)
Month to date precipitation 1.94 1.92  
Year to date precipitation 42.44 47.63  
Snow  
Snow 0.00 in 0.00 in 1.50 in (1932)
Month to date snowfall 0.0 0.0  
Since 1 July snowfall 0.0 0.0  
Snow Depth 0.00 in    
Sea Level Pressure  
Sea Level Pressure 29.95 in    
Wind  
Wind Speed 12 mph (NNW)    
Max Wind Speed 23 mph    
Max Gust Speed 30 mph    
Visibility 10 miles    
Events Rain , Thunderstorm    
T = Trace of Precipitation, MM = Missing Value Source: NWS Daily Summary

Daily Weather History Graph

Daily Weather History Graph

Search for Another Location

Airport or City:

Trip Planner

Search our weather history database for the weather conditions in past years. The results will help you decide how hot, cold, wet, or windy it might be!

Date:

Astronomy

Dec. 10, 2012 Rise Set
Actual Time 7:03 AM CST 4:58 PM CST
Civil Twilight 6:35 AM CST 5:26 PM CST
Nautical Twilight 6:04 AM CST 5:57 PM CST
Astronomical Twilight 5:33 AM CST 6:27 PM CST
Moon 3:51 AM CST (12/10) 2:44 PM CST (12/10)
Length of Visible Light 10h 50m
Length of Day
9h 55m
Waning Crescent, 10% of the Moon is Illuminated
Dec 10
Waning Crescent
Dec 13
New
Dec 19
First Quarter
Dec 28
Full
Jan 4
Last Quarter

Hourly Weather History & Observations

Time (CST) Temp. Windchill Dew Point Humidity Pressure Visibility Wind Dir Wind Speed Gust Speed Precip Events Conditions
12:53 AM 53.1 °F - 48.0 °F 83% 29.84 in 10.0 mi North 16.1 mph 24.2 mph 0.00 in Rain Light Rain
1:14 AM 51.8 °F - 48.2 °F 88% 29.85 in 10.0 mi North 12.7 mph 24.2 mph 0.00 in   Overcast
1:53 AM 51.1 °F - 46.9 °F 86% 29.83 in 10.0 mi North 16.1 mph 20.7 mph 0.00 in Rain Light Rain
2:00 AM 50.0 °F - 44.6 °F 82% 29.86 in 10.0 mi North 11.5 mph 20.7 mph 0.00 in Rain , Thunderstorm Light Rain
2:27 AM 50.0 °F - 46.4 °F 87% 29.87 in 8.0 mi North 11.5 mph - 0.03 in Rain Rain
2:42 AM 50.0 °F - 46.4 °F 87% 29.87 in 10.0 mi North 9.2 mph - 0.05 in Rain , Thunderstorm Light Rain
2:53 AM 50.0 °F - 45.0 °F 83% 29.88 in 10.0 mi North 6.9 mph - 0.06 in   Overcast
3:53 AM 48.9 °F - 43.0 °F 80% 29.86 in 10.0 mi North 11.5 mph 21.9 mph 0.01 in   Overcast
4:19 AM 48.2 °F - 42.8 °F 82% 29.85 in 10.0 mi North 9.2 mph - 0.00 in Rain Light Rain
4:53 AM 48.0 °F - 42.1 °F 80% 29.88 in 10.0 mi NNW 18.4 mph 23.0 mph 0.00 in   Overcast
5:44 AM 46.4 °F 39.5 °F 39.2 °F 76% 29.86 in 10.0 mi North 17.3 mph 24.2 mph N/A   Overcast
5:53 AM 46.0 °F 38.3 °F 37.9 °F 73% 29.88 in 10.0 mi NNW 20.7 mph 25.3 mph 0.00 in Rain Light Rain
6:11 AM 44.6 °F 36.6 °F 37.4 °F 76% 29.89 in 10.0 mi NNW 19.6 mph 29.9 mph 0.00 in   Overcast
6:19 AM 44.6 °F 37.8 °F 37.4 °F 76% 29.89 in 10.0 mi NNW 15.0 mph 24.2 mph 0.00 in   Overcast
6:53 AM 44.1 °F 36.8 °F 36.0 °F 73% 29.92 in 10.0 mi NNW 16.1 mph 26.5 mph 0.00 in   Overcast
7:53 AM 42.1 °F 34.5 °F 30.0 °F 62% 29.98 in 10.0 mi NW 15.0 mph 23.0 mph N/A   Overcast
8:53 AM 41.0 °F 32.8 °F 30.0 °F 65% 29.98 in 10.0 mi NNW 16.1 mph 21.9 mph N/A   Mostly Cloudy
9:53 AM 42.8 °F 34.3 °F 26.6 °F 53% 30.00 in 10.0 mi NNW 19.6 mph 26.5 mph N/A   Partly Cloudy
10:53 AM 44.1 °F 37.7 °F 28.9 °F 55% 30.00 in 10.0 mi NNW 12.7 mph - N/A   Clear
11:53 AM 44.1 °F 37.1 °F 28.9 °F 55% 29.99 in 10.0 mi North 15.0 mph 20.7 mph N/A   Overcast
12:53 PM 42.1 °F 35.2 °F 28.0 °F 58% 29.98 in 10.0 mi North 12.7 mph 21.9 mph N/A   Overcast
1:53 PM 43.0 °F 37.7 °F 28.0 °F 56% 29.97 in 10.0 mi NNW 9.2 mph - N/A   Mostly Cloudy
2:53 PM 42.1 °F 37.1 °F 27.0 °F 55% 29.99 in 10.0 mi WNW 8.1 mph - N/A   Clear
3:53 PM 42.1 °F 37.1 °F 27.0 °F 55% 30.00 in 10.0 mi NW 8.1 mph - N/A   Clear
4:53 PM 41.0 °F 35.8 °F 26.1 °F 55% 30.02 in 10.0 mi NNW 8.1 mph - N/A   Clear
5:53 PM 39.0 °F 36.8 °F 27.0 °F 62% 30.03 in 10.0 mi NNW 3.5 mph - N/A   Clear
6:53 PM 37.9 °F 32.7 °F 27.0 °F 65% 30.04 in 10.0 mi NW 6.9 mph - N/A   Clear
7:53 PM 36.0 °F 30.3 °F 27.0 °F 70% 30.06 in 10.0 mi North 6.9 mph - N/A   Clear
8:53 PM 36.0 °F 28.5 °F 27.0 °F 70% 30.08 in 10.0 mi North 10.4 mph - N/A   Clear
9:53 PM 35.1 °F 27.4 °F 27.0 °F 72% 30.10 in 10.0 mi North 10.4 mph - N/A   Clear
10:53 PM 33.1 °F 24.9 °F 27.0 °F 78% 30.13 in 10.0 mi NNE 10.4 mph - N/A   Clear
11:53 PM 30.9 °F 27.5 °F 26.1 °F 82% 30.13 in 10.0 mi North 3.5 mph - N/A   Clear